Location: Ash Observatory
(39.7321°N, 75.2004°W)
Time: 20:01:20
(UTC-04:00)

ISS - Pass Details

Date: 25 May 2019
Orbit: 407 x 418 km, 51.6° (Epoch: 27 June)

Event Time Altitude Azimuth Distance (km) Brightness Sun altitude
Rises 23:33:37 0° 314° (NW) 2,362 1.1 -26.1°
Reaches altitude 10° 23:36:16 10° 336° (NNW) 1,500 0.1 -26.3°
Maximum altitude 23:38:31 17° 18° (NNE) 1,165 -1.0 -26.4°
Enters shadow 23:38:56 16° 28° (NNE) 1,178 -1.1 -26.5°
